AUA465 LOWW-GCTS

Flight info

Callsign AUA465
Flight time 4h 39m
Altitude 32000
Route OSPEN DCT ABRUK DCT SETAL DCT DETSA/N0451F330 DCT GEKBA DCT VAMTU DCT KOLON DCT GANGU DCT PADKO DCT DIVKO DCT NILDU DCT NENDA DCT BCN DCT RODRA DCT PEXOT DCT EBROX DCT LOTOS DCT TORDU DCT DIKUT DCT SOPET DCT VLC/N0445F350 DCT SERRA DCT ASTRO DCT POBOS DCT XEBAR DCT YES DCT MAMIS DCT BAZAS DCT VIBAS DCT MGA DCT BRIKE DCT VJF L82 RUNAX UL82 IBALU UN857 TERTO
Aircraft A321/M-SDE3FGHIRWY/LB1

Departure

Time 2026-04-25 10:44
Airport Vienna International Airport (LOWW)

Arrival

Time 2026-04-25 15:23
Airport Tenerife Sur Airport (GCTS)
Time Latitude Longitude Altitude Speed Heading
2026-04-25 10:30 48.11390 16.57250 614 ft 0 kts 205°
2026-04-25 10:40 48.11367 16.57234 613 ft 10 kts 204°
2026-04-25 10:41 48.11316 16.57244 617 ft 11 kts 134°
2026-04-25 10:41 48.11227 16.57269 620 ft 13 kts 203°
2026-04-25 10:41 48.11148 16.57211 613 ft 15 kts 206°
2026-04-25 10:41 48.11060 16.57144 615 ft 5 kts 221°
2026-04-25 10:42 48.11060 16.57089 615 ft 5 kts 288°
2026-04-25 10:42 48.11067 16.57067 612 ft 0 kts 294°
2026-04-25 10:43 48.11134 16.56858 611 ft 60 kts 296°
2026-04-25 10:43 48.11427 16.55959 612 ft 129 kts 296°
2026-04-25 10:43 48.11901 16.54492 638 ft 179 kts 295°
2026-04-25 10:44 48.12397 16.52789 1442 ft 175 kts 285°
2026-04-25 10:44 48.12242 16.50921 2019 ft 200 kts 245°
2026-04-25 10:44 48.11172 16.49376 2357 ft 230 kts 217°
2026-04-25 10:44 48.09744 16.48110 2644 ft 249 kts 212°
2026-04-25 10:45 48.08183 16.46807 3149 ft 259 kts 213°
2026-04-25 10:45 48.06605 16.45449 3895 ft 264 kts 213°
2026-04-25 10:45 48.05042 16.43980 4592 ft 265 kts 221°
2026-04-25 10:45 48.03623 16.42266 5260 ft 267 kts 226°
2026-04-25 10:46 48.02212 16.40369 5882 ft 271 kts 227°
2026-04-25 10:46 48.00818 16.38442 6484 ft 275 kts 227°
2026-04-25 10:46 47.99444 16.36483 7058 ft 276 kts 234°
2026-04-25 10:46 47.98477 16.34036 7508 ft 279 kts 252°
2026-04-25 10:47 47.97719 16.31259 7630 ft 299 kts 252°
2026-04-25 10:47 47.96931 16.28270 7759 ft 318 kts 252°
2026-04-25 10:47 47.96100 16.25109 7888 ft 337 kts 252°
2026-04-25 10:47 47.95218 16.21771 8018 ft 354 kts 252°
2026-04-25 10:48 47.94289 16.18283 8150 ft 370 kts 252°
2026-04-25 10:48 47.93317 16.14675 8501 ft 378 kts 251°
2026-04-25 10:48 47.92327 16.11028 8947 ft 382 kts 251°
2026-04-25 10:48 47.91325 16.07342 9425 ft 385 kts 251°
2026-04-25 10:49 47.90316 16.03625 9897 ft 389 kts 251°
2026-04-25 10:49 47.89294 15.99862 10307 ft 393 kts 251°
2026-04-25 10:49 47.88263 15.96073 10694 ft 396 kts 251°
2026-04-25 10:49 47.87222 15.92254 11109 ft 399 kts 252°
2026-04-25 10:50 47.86178 15.88418 11476 ft 402 kts 251°
2026-04-25 10:50 47.85121 15.84549 11854 ft 404 kts 252°
2026-04-25 10:50 47.84058 15.80657 12209 ft 406 kts 252°
2026-04-25 10:50 47.82988 15.76750 12502 ft 409 kts 251°
2026-04-25 10:51 47.81905 15.72809 12813 ft 412 kts 251°
2026-04-25 10:51 47.80815 15.68854 13136 ft 415 kts 251°
2026-04-25 10:51 47.79715 15.64865 13488 ft 417 kts 251°
2026-04-25 10:51 47.78612 15.60863 13817 ft 420 kts 251°
2026-04-25 10:52 47.77498 15.56826 14092 ft 423 kts 251°
2026-04-25 10:52 47.76377 15.52770 14380 ft 425 kts 251°
2026-04-25 10:52 47.75246 15.48688 14672 ft 427 kts 251°
2026-04-25 10:52 47.74112 15.44597 14937 ft 429 kts 251°
2026-04-25 10:53 47.72973 15.40491 15185 ft 431 kts 251°
2026-04-25 10:53 47.71841 15.36419 15483 ft 433 kts 251°
2026-04-25 10:53 47.70674 15.32223 15785 ft 435 kts 251°
2026-04-25 10:53 47.69527 15.28117 16092 ft 437 kts 250°
2026-04-25 10:54 47.68358 15.23943 16429 ft 438 kts 250°
2026-04-25 10:54 47.67566 15.21120 16654 ft 440 kts 251°
2026-04-25 10:54 47.66001 15.15550 17108 ft 443 kts 250°
2026-04-25 10:54 47.64811 15.11329 17423 ft 445 kts 250°
2026-04-25 10:55 47.63610 15.07079 17757 ft 447 kts 251°
2026-04-25 10:55 47.62407 15.02820 18090 ft 449 kts 251°
2026-04-25 10:55 47.61197 14.98539 18405 ft 451 kts 250°
2026-04-25 10:55 47.59978 14.94236 18673 ft 453 kts 250°
2026-04-25 10:56 47.58755 14.89923 18920 ft 455 kts 249°
2026-04-25 10:56 47.57526 14.85601 19190 ft 457 kts 249°
2026-04-25 10:56 47.56289 14.81261 19470 ft 458 kts 250°
2026-04-25 10:56 47.55041 14.76895 19732 ft 461 kts 249°
2026-04-25 10:57 47.53790 14.72525 20001 ft 463 kts 249°
2026-04-25 10:57 47.52530 14.68128 20275 ft 465 kts 249°
2026-04-25 10:57 47.51263 14.63716 20536 ft 466 kts 249°
2026-04-25 10:57 47.49991 14.59290 20800 ft 469 kts 249°
2026-04-25 10:58 47.48712 14.54848 21025 ft 471 kts 249°
2026-04-25 10:58 47.47442 14.50444 21294 ft 472 kts 249°
2026-04-25 10:58 47.46149 14.45976 21551 ft 474 kts 248°
2026-04-25 10:58 47.44848 14.41488 21770 ft 476 kts 248°
2026-04-25 10:59 47.43542 14.36990 22038 ft 477 kts 248°
2026-04-25 10:59 47.42227 14.32472 22281 ft 479 kts 248°
2026-04-25 10:59 47.40909 14.27943 22502 ft 481 kts 248°
2026-04-25 10:59 47.39586 14.23396 22720 ft 483 kts 248°
2026-04-25 11:00 47.38256 14.18834 22920 ft 485 kts 248°
2026-04-25 11:00 47.36916 14.14251 23107 ft 487 kts 248°
2026-04-25 11:00 47.35569 14.09663 23360 ft 487 kts 248°
2026-04-25 11:00 47.34224 14.05080 23627 ft 487 kts 248°
2026-04-25 11:01 47.32875 14.00499 23839 ft 487 kts 248°
2026-04-25 11:01 47.31519 13.95909 24061 ft 487 kts 248°
2026-04-25 11:01 47.30164 13.91325 24268 ft 488 kts 247°
2026-04-25 11:01 47.28805 13.86759 24524 ft 487 kts 248°
2026-04-25 11:02 47.27439 13.82188 24753 ft 488 kts 247°
2026-04-25 11:02 47.25912 13.77741 24942 ft 488 kts 238°
2026-04-25 11:02 47.24055 13.73551 25144 ft 489 kts 237°
2026-04-25 11:02 47.22191 13.69371 25381 ft 488 kts 237°
2026-04-25 11:03 47.20326 13.65198 25615 ft 488 kts 237°
2026-04-25 11:03 47.18458 13.61033 25873 ft 487 kts 237°
2026-04-25 11:03 47.16591 13.56888 26120 ft 487 kts 237°
2026-04-25 11:03 47.14722 13.52749 26343 ft 486 kts 237°
2026-04-25 11:04 47.12850 13.48613 26569 ft 486 kts 237°
2026-04-25 11:04 47.10984 13.44484 26799 ft 486 kts 237°
2026-04-25 11:04 47.09138 13.40402 26993 ft 486 kts 237°
2026-04-25 11:04 47.07872 13.37608 27161 ft 486 kts 237°
2026-04-25 11:05 47.05397 13.32160 27468 ft 485 kts 237°
2026-04-25 11:05 47.03528 13.28050 27715 ft 484 kts 237°
2026-04-25 11:05 47.01639 13.23902 27960 ft 482 kts 237°
2026-04-25 11:05 46.99800 13.19867 28184 ft 482 kts 237°
2026-04-25 11:06 46.97940 13.15785 28384 ft 482 kts 237°
2026-04-25 11:06 46.96078 13.11703 28591 ft 482 kts 237°
2026-04-25 11:06 46.94210 13.07620 28788 ft 482 kts 237°
2026-04-25 11:06 46.92346 13.03555 29027 ft 481 kts 237°
2026-04-25 11:07 46.90473 12.99488 29244 ft 481 kts 237°
2026-04-25 11:07 46.88607 12.95437 29413 ft 481 kts 237°
2026-04-25 11:07 46.86737 12.91382 29612 ft 480 kts 237°
2026-04-25 11:07 46.84868 12.87337 29842 ft 480 kts 237°
2026-04-25 11:08 46.83003 12.83302 30026 ft 479 kts 237°
2026-04-25 11:08 46.81138 12.79267 30200 ft 479 kts 237°
2026-04-25 11:08 46.79273 12.75234 30374 ft 478 kts 237°
2026-04-25 11:08 46.77408 12.71213 30565 ft 478 kts 237°
2026-04-25 11:09 46.75542 12.67198 30757 ft 477 kts 237°
2026-04-25 11:09 46.73701 12.63249 30934 ft 477 kts 237°
2026-04-25 11:09 46.71832 12.59246 31099 ft 477 kts 237°
2026-04-25 11:09 46.69968 12.55256 31296 ft 476 kts 237°
2026-04-25 11:10 46.68106 12.51273 31480 ft 476 kts 237°
2026-04-25 11:10 46.64384 12.43310 31844 ft 475 kts 237°
2026-04-25 11:10 46.62525 12.39341 32038 ft 475 kts 237°
2026-04-25 11:11 46.60662 12.35374 32093 ft 476 kts 236°
2026-04-25 11:11 46.56891 12.27374 32093 ft 480 kts 236°
2026-04-25 11:12 46.53107 12.19362 32088 ft 480 kts 236°
2026-04-25 11:12 46.49958 12.12725 32083 ft 480 kts 236°
2026-04-25 11:13 46.46168 12.04752 32071 ft 479 kts 236°
2026-04-25 11:13 46.41768 11.95507 32062 ft 479 kts 236°
2026-04-25 11:14 46.38589 11.88842 32060 ft 479 kts 236°
2026-04-25 11:14 46.34814 11.80961 32070 ft 479 kts 236°
2026-04-25 11:15 46.31004 11.73041 32079 ft 479 kts 236°
2026-04-25 11:15 46.27197 11.65145 32077 ft 479 kts 236°
2026-04-25 11:16 46.21476 11.53313 32087 ft 478 kts 236°
2026-04-25 11:16 46.17668 11.45454 32141 ft 478 kts 236°
2026-04-25 11:17 46.13860 11.37612 32154 ft 477 kts 236°
2026-04-25 11:17 46.10042 11.29784 32161 ft 477 kts 235°
2026-04-25 11:18 46.06221 11.21984 32166 ft 476 kts 235°
2026-04-25 11:18 46.02422 11.14258 32162 ft 475 kts 235°
2026-04-25 11:19 45.98595 11.06490 32155 ft 475 kts 235°
2026-04-25 11:19 45.94784 10.98743 32147 ft 475 kts 235°
2026-04-25 11:20 45.90963 10.91002 32146 ft 474 kts 235°
2026-04-25 11:20 45.87134 10.83286 32145 ft 474 kts 235°
2026-04-25 11:21 45.83329 10.75636 32131 ft 474 kts 235°
2026-04-25 11:21 45.79501 10.67967 32123 ft 473 kts 235°
2026-04-25 11:22 45.76317 10.61594 32120 ft 473 kts 235°
2026-04-25 11:22 45.71823 10.52627 32109 ft 473 kts 235°
2026-04-25 11:23 45.67983 10.44984 32090 ft 472 kts 235°
2026-04-25 11:23 45.64143 10.37370 32085 ft 472 kts 235°
2026-04-25 11:24 45.60309 10.29781 32077 ft 471 kts 234°
2026-04-25 11:24 45.56466 10.22196 32074 ft 471 kts 234°
2026-04-25 11:25 45.52647 10.14685 32075 ft 470 kts 234°
2026-04-25 11:25 45.48796 10.07149 32075 ft 470 kts 234°
2026-04-25 11:26 45.44958 9.99626 32071 ft 469 kts 234°
2026-04-25 11:26 45.41119 9.92116 32074 ft 469 kts 234°
2026-04-25 11:27 45.37272 9.84633 32097 ft 468 kts 234°
2026-04-25 11:27 45.34078 9.78423 32104 ft 468 kts 234°
2026-04-25 11:28 45.29581 9.69701 32105 ft 467 kts 234°
2026-04-25 11:28 45.25730 9.62263 32098 ft 467 kts 234°
2026-04-25 11:29 45.21883 9.54851 32082 ft 467 kts 234°
2026-04-25 11:29 45.18023 9.47449 32089 ft 466 kts 234°
2026-04-25 11:30 45.14191 9.40105 32084 ft 466 kts 234°
2026-04-25 11:30 45.10343 9.32713 32084 ft 466 kts 234°
2026-04-25 11:31 45.06483 9.25344 32087 ft 466 kts 234°
2026-04-25 11:31 45.02613 9.17998 32090 ft 465 kts 234°
2026-04-25 11:32 44.98737 9.10659 32090 ft 465 kts 234°
2026-04-25 11:32 44.94868 9.03338 32090 ft 465 kts 234°
2026-04-25 11:33 44.90987 8.96020 32092 ft 465 kts 233°
2026-04-25 11:33 44.87105 8.88715 32093 ft 465 kts 233°
2026-04-25 11:34 44.83249 8.81466 32095 ft 465 kts 233°
2026-04-25 11:34 44.79364 8.74190 32090 ft 464 kts 233°
2026-04-25 11:35 44.75478 8.66920 32093 ft 464 kts 233°
2026-04-25 11:35 44.71590 8.59667 32095 ft 464 kts 233°
2026-04-25 11:36 44.67698 8.52433 32104 ft 463 kts 233°
2026-04-25 11:36 44.63904 8.45414 32081 ft 449 kts 234°
2026-04-25 11:37 44.60132 8.38439 32076 ft 448 kts 234°
2026-04-25 11:37 44.56362 8.31472 32080 ft 448 kts 234°
2026-04-25 11:38 44.52588 8.24517 32077 ft 448 kts 234°
2026-04-25 11:38 44.48801 8.17557 32077 ft 449 kts 233°
2026-04-25 11:39 44.45007 8.10604 32072 ft 450 kts 234°
2026-04-25 11:39 44.41204 8.03652 32066 ft 450 kts 233°
2026-04-25 11:40 44.37392 7.96702 32065 ft 450 kts 233°
2026-04-25 11:40 44.33569 7.89752 32062 ft 451 kts 233°
2026-04-25 11:41 44.29764 7.82853 32058 ft 451 kts 233°
2026-04-25 11:41 44.25672 7.76204 32059 ft 453 kts 223°
2026-04-25 11:42 44.20940 7.70368 32064 ft 454 kts 223°
2026-04-25 11:42 44.16196 7.64549 32072 ft 454 kts 223°
2026-04-25 11:43 44.11856 7.58203 32083 ft 453 kts 230°
2026-04-25 11:43 44.07730 7.51576 32085 ft 453 kts 230°
2026-04-25 11:44 44.03611 7.45009 32088 ft 453 kts 230°
2026-04-25 11:44 43.99453 7.38409 32091 ft 454 kts 230°
2026-04-25 11:45 43.95298 7.31806 32092 ft 454 kts 230°
2026-04-25 11:45 43.91141 7.25193 32096 ft 455 kts 230°
2026-04-25 11:46 43.86973 7.18588 32099 ft 455 kts 230°
2026-04-25 11:46 43.82797 7.12001 32103 ft 455 kts 230°
2026-04-25 11:47 43.78616 7.05416 32105 ft 455 kts 230°
2026-04-25 11:47 43.74438 6.98846 32106 ft 455 kts 230°
2026-04-25 11:48 43.71068 6.91504 32106 ft 452 kts 248°
2026-04-25 11:48 43.68732 6.83502 32107 ft 452 kts 249°
2026-04-25 11:49 43.66363 6.75445 32102 ft 453 kts 248°
2026-04-25 11:49 43.63971 6.67399 32096 ft 453 kts 248°
2026-04-25 11:50 43.61566 6.59346 32090 ft 453 kts 248°
2026-04-25 11:50 43.59168 6.51305 32069 ft 453 kts 248°
2026-04-25 11:51 43.56769 6.43252 32067 ft 454 kts 248°
2026-04-25 11:51 43.54356 6.35202 32065 ft 454 kts 248°
2026-04-25 11:52 43.51932 6.27165 32064 ft 454 kts 248°
2026-04-25 11:52 43.49526 6.19190 32064 ft 454 kts 248°
2026-04-25 11:53 43.47100 6.11160 32065 ft 454 kts 248°
2026-04-25 11:53 43.44670 6.03141 32068 ft 454 kts 248°
2026-04-25 11:54 43.42231 5.95106 32075 ft 454 kts 248°
2026-04-25 11:55 43.38563 5.83083 32089 ft 454 kts 248°
2026-04-25 11:55 43.36100 5.75079 32089 ft 454 kts 248°
2026-04-25 11:56 43.33639 5.67084 32096 ft 454 kts 248°
2026-04-25 11:56 43.31180 5.59094 32107 ft 454 kts 248°
2026-04-25 11:57 43.28726 5.51167 32110 ft 454 kts 248°
2026-04-25 11:57 43.26247 5.43192 32117 ft 454 kts 248°
2026-04-25 11:58 43.23764 5.35230 32117 ft 454 kts 248°
2026-04-25 11:58 43.21282 5.27272 32117 ft 454 kts 248°
2026-04-25 11:59 43.18798 5.19314 32112 ft 454 kts 248°
2026-04-25 11:59 43.16720 5.12702 32112 ft 454 kts 247°
2026-04-25 12:00 43.12531 4.99494 32119 ft 455 kts 247°
2026-04-25 12:01 43.09184 4.88912 32120 ft 455 kts 247°
2026-04-25 12:01 43.06585 4.81016 32120 ft 455 kts 241°
2026-04-25 12:02 43.00333 4.71293 32119 ft 457 kts 222°
2026-04-25 12:02 42.95555 4.65536 32121 ft 458 kts 222°
2026-04-25 12:03 42.90783 4.59771 32120 ft 458 kts 222°
2026-04-25 12:03 42.86007 4.53997 32120 ft 459 kts 222°
2026-04-25 12:04 42.81221 4.48250 32123 ft 459 kts 222°
2026-04-25 12:04 42.76453 4.42552 32123 ft 459 kts 222°
2026-04-25 12:05 42.71647 4.36815 32125 ft 459 kts 222°
2026-04-25 12:05 42.66840 4.31085 32128 ft 459 kts 222°
2026-04-25 12:06 42.62034 4.25352 32130 ft 460 kts 222°
2026-04-25 12:06 42.57221 4.19627 32129 ft 460 kts 222°
2026-04-25 12:07 42.52395 4.13910 32125 ft 460 kts 222°
2026-04-25 12:07 42.47568 4.08202 32128 ft 461 kts 222°
2026-04-25 12:08 42.42730 4.02498 32129 ft 461 kts 222°
2026-04-25 12:08 42.37918 3.96830 32128 ft 462 kts 222°
2026-04-25 12:09 42.33069 3.91124 32127 ft 462 kts 222°
2026-04-25 12:09 42.28210 3.85419 32129 ft 463 kts 222°
2026-04-25 12:10 42.23962 3.78954 32126 ft 461 kts 236°
2026-04-25 12:10 42.20260 3.71884 32121 ft 461 kts 236°
2026-04-25 12:11 42.16532 3.64829 32121 ft 462 kts 235°
2026-04-25 12:11 42.12798 3.57779 32122 ft 462 kts 235°
2026-04-25 12:12 42.09692 3.51911 32120 ft 463 kts 235°
2026-04-25 12:12 42.05346 3.43710 32121 ft 463 kts 235°
2026-04-25 12:13 42.01586 3.36662 32124 ft 463 kts 235°
2026-04-25 12:13 41.97819 3.29618 32122 ft 464 kts 235°
2026-04-25 12:14 41.94045 3.22581 32119 ft 464 kts 235°
2026-04-25 12:14 41.90268 3.15523 32111 ft 465 kts 235°
2026-04-25 12:15 41.86486 3.08480 32108 ft 465 kts 235°
2026-04-25 12:15 41.82713 3.01489 32109 ft 465 kts 234°
2026-04-25 12:16 41.78920 2.94456 32110 ft 466 kts 235°
2026-04-25 12:16 41.75122 2.87431 32113 ft 466 kts 234°
2026-04-25 12:17 41.71315 2.80415 32118 ft 466 kts 234°
2026-04-25 12:17 41.67497 2.73414 32118 ft 466 kts 234°
2026-04-25 12:18 41.63548 2.66548 32121 ft 465 kts 232°
2026-04-25 12:18 41.59528 2.59762 32125 ft 465 kts 232°
2026-04-25 12:19 41.53558 2.49613 32118 ft 465 kts 232°
2026-04-25 12:20 41.49582 2.42808 32113 ft 465 kts 232°
2026-04-25 12:20 41.45601 2.36012 32111 ft 465 kts 232°
2026-04-25 12:21 41.41607 2.29226 32110 ft 465 kts 232°
2026-04-25 12:21 41.37612 2.22449 32128 ft 466 kts 232°
2026-04-25 12:22 41.33598 2.15651 32130 ft 466 kts 232°
2026-04-25 12:22 41.29561 2.08907 32127 ft 466 kts 230°
2026-04-25 12:23 41.25280 2.02439 32130 ft 466 kts 227°
2026-04-25 12:23 41.20863 1.96120 32130 ft 466 kts 227°
2026-04-25 12:24 41.16478 1.89774 32131 ft 466 kts 228°
2026-04-25 12:24 41.12143 1.83371 32150 ft 466 kts 228°
2026-04-25 12:25 41.07844 1.77019 32149 ft 466 kts 228°
2026-04-25 12:25 41.03488 1.70612 32156 ft 466 kts 227°
2026-04-25 12:26 40.99140 1.64238 32150 ft 466 kts 227°
2026-04-25 12:26 40.94787 1.57872 32147 ft 466 kts 227°
2026-04-25 12:27 40.90433 1.51521 32148 ft 466 kts 227°
2026-04-25 12:27 40.86070 1.45177 32162 ft 466 kts 227°
2026-04-25 12:28 40.81709 1.38852 32154 ft 466 kts 227°
2026-04-25 12:28 40.77343 1.32530 32160 ft 466 kts 227°
2026-04-25 12:29 40.73000 1.26257 32168 ft 466 kts 227°
2026-04-25 12:29 40.68623 1.19950 32154 ft 466 kts 227°
2026-04-25 12:30 40.64255 1.13649 32160 ft 466 kts 227°
2026-04-25 12:30 40.59884 1.07355 32159 ft 466 kts 227°
2026-04-25 12:31 40.55503 1.01072 32153 ft 466 kts 227°
2026-04-25 12:31 40.51120 0.94797 32155 ft 465 kts 227°
2026-04-25 12:32 40.46734 0.88535 32148 ft 465 kts 227°
2026-04-25 12:32 40.42376 0.82332 32144 ft 465 kts 226°
2026-04-25 12:33 40.37985 0.76097 32149 ft 464 kts 226°
2026-04-25 12:33 40.33597 0.69872 32150 ft 464 kts 226°
2026-04-25 12:34 40.29212 0.63665 32155 ft 464 kts 226°
2026-04-25 12:34 40.24823 0.57468 32147 ft 463 kts 226°
2026-04-25 12:35 40.20444 0.51286 32147 ft 463 kts 226°
2026-04-25 12:35 40.16088 0.45158 32151 ft 463 kts 226°
2026-04-25 12:36 40.11691 0.39001 32152 ft 463 kts 226°
2026-04-25 12:36 40.07291 0.32846 32150 ft 463 kts 226°
2026-04-25 12:37 40.02901 0.26691 32150 ft 463 kts 226°
2026-04-25 12:37 39.98490 0.20539 32148 ft 464 kts 226°
2026-04-25 12:38 39.94082 0.14405 32142 ft 464 kts 226°
2026-04-25 12:38 39.89672 0.08268 32151 ft 464 kts 225°
2026-04-25 12:39 39.85257 0.02141 32158 ft 464 kts 225°
2026-04-25 12:39 39.80877 -0.03940 32146 ft 464 kts 225°
2026-04-25 12:40 39.76460 -0.10050 32144 ft 464 kts 225°
2026-04-25 12:40 39.72035 -0.16153 32145 ft 463 kts 225°
2026-04-25 12:41 39.67605 -0.22233 32143 ft 463 kts 225°
2026-04-25 12:41 39.63172 -0.28313 32145 ft 463 kts 225°
2026-04-25 12:42 39.58748 -0.34379 32146 ft 463 kts 225°
2026-04-25 12:42 39.54322 -0.40435 32146 ft 462 kts 225°
2026-04-25 12:43 39.49899 -0.46479 32142 ft 462 kts 225°
2026-04-25 12:43 39.43916 -0.56265 32147 ft 463 kts 231°
2026-04-25 12:44 39.40028 -0.62899 32149 ft 463 kts 231°
2026-04-25 12:45 39.34210 -0.72768 32141 ft 462 kts 231°
2026-04-25 12:45 39.28371 -0.82673 32132 ft 461 kts 231°
2026-04-25 12:46 39.24479 -0.89258 32130 ft 462 kts 231°
2026-04-25 12:46 39.20581 -0.95836 32129 ft 462 kts 230°
2026-04-25 12:47 39.16675 -1.02425 32126 ft 462 kts 230°
2026-04-25 12:47 39.12783 -1.08968 32125 ft 463 kts 230°
2026-04-25 12:48 39.08856 -1.15546 32124 ft 463 kts 230°
2026-04-25 12:48 39.04931 -1.22127 32124 ft 464 kts 230°
2026-04-25 12:49 39.00993 -1.28711 32127 ft 465 kts 230°
2026-04-25 12:49 38.97045 -1.35296 32133 ft 465 kts 230°
2026-04-25 12:50 38.93758 -1.40763 32139 ft 465 kts 230°
2026-04-25 12:50 38.89796 -1.47341 32147 ft 465 kts 230°
2026-04-25 12:51 38.85830 -1.53909 32153 ft 466 kts 230°
2026-04-25 12:51 38.81863 -1.60483 32158 ft 466 kts 230°
2026-04-25 12:52 38.77892 -1.67048 32162 ft 465 kts 230°
2026-04-25 12:52 38.73921 -1.73587 32165 ft 465 kts 230°
2026-04-25 12:53 38.69945 -1.80125 32168 ft 465 kts 230°
2026-04-25 12:53 38.65988 -1.86610 32171 ft 465 kts 230°
2026-04-25 12:54 38.62007 -1.93139 32173 ft 465 kts 230°
2026-04-25 12:54 38.58021 -1.99654 32174 ft 466 kts 229°
2026-04-25 12:55 38.54691 -2.05065 32173 ft 466 kts 229°
2026-04-25 12:55 38.50001 -2.12688 32170 ft 467 kts 230°
2026-04-25 12:56 38.45995 -2.19216 32169 ft 467 kts 230°
2026-04-25 12:56 38.41982 -2.25745 32166 ft 468 kts 230°
2026-04-25 12:57 38.37952 -2.32264 32160 ft 468 kts 229°
2026-04-25 12:57 38.33717 -2.38481 32155 ft 467 kts 224°
2026-04-25 12:58 38.29240 -2.44476 32149 ft 467 kts 224°
2026-04-25 12:58 38.24750 -2.50484 32141 ft 468 kts 224°
2026-04-25 12:59 38.20262 -2.56498 32131 ft 469 kts 224°
2026-04-25 12:59 38.15770 -2.62507 32120 ft 469 kts 224°
2026-04-25 13:00 38.12027 -2.67499 32115 ft 470 kts 224°
2026-04-25 13:00 38.06750 -2.74524 32106 ft 471 kts 224°
2026-04-25 13:01 38.02227 -2.80537 32104 ft 471 kts 224°
2026-04-25 13:01 37.97696 -2.86541 32095 ft 471 kts 224°
2026-04-25 13:02 37.93154 -2.92548 32094 ft 472 kts 224°
2026-04-25 13:02 37.88636 -2.98513 32096 ft 473 kts 224°
2026-04-25 13:03 37.84081 -3.04515 32100 ft 473 kts 224°
2026-04-25 13:03 37.79517 -3.10528 32101 ft 473 kts 223°
2026-04-25 13:04 37.74952 -3.16525 32099 ft 473 kts 223°
2026-04-25 13:04 37.70383 -3.22522 32100 ft 473 kts 223°
2026-04-25 13:05 37.65814 -3.28506 32097 ft 473 kts 223°
2026-04-25 13:05 37.61232 -3.34486 32090 ft 474 kts 223°
2026-04-25 13:06 37.56671 -3.40419 32088 ft 474 kts 223°
2026-04-25 13:06 37.52079 -3.46399 32087 ft 474 kts 223°
2026-04-25 13:07 37.47484 -3.52375 32086 ft 475 kts 223°
2026-04-25 13:07 37.42886 -3.58347 32095 ft 475 kts 223°
2026-04-25 13:08 37.38273 -3.64302 32101 ft 475 kts 223°
2026-04-25 13:08 37.33664 -3.70257 32109 ft 475 kts 223°
2026-04-25 13:09 37.29057 -3.76202 32116 ft 475 kts 223°
2026-04-25 13:09 37.24447 -3.82136 32118 ft 475 kts 223°
2026-04-25 13:10 37.19827 -3.88064 32118 ft 474 kts 223°
2026-04-25 13:10 37.15217 -3.93969 32114 ft 474 kts 223°
2026-04-25 13:11 37.10602 -3.99877 32109 ft 474 kts 224°
2026-04-25 13:11 37.06016 -4.05730 32099 ft 474 kts 224°
2026-04-25 13:12 37.01396 -4.11629 32101 ft 474 kts 224°
2026-04-25 13:12 36.97555 -4.16521 32105 ft 474 kts 224°
2026-04-25 13:13 36.92149 -4.23377 32111 ft 473 kts 224°
2026-04-25 13:13 36.87524 -4.29231 32120 ft 473 kts 224°
2026-04-25 13:14 36.83055 -4.35174 32113 ft 473 kts 232°
2026-04-25 13:14 36.79871 -4.42334 32115 ft 474 kts 249°
2026-04-25 13:15 36.77626 -4.50065 32111 ft 474 kts 250°
2026-04-25 13:15 36.75365 -4.57787 32111 ft 474 kts 250°
2026-04-25 13:16 36.73105 -4.65513 32104 ft 474 kts 250°
2026-04-25 13:16 36.70843 -4.73227 32104 ft 474 kts 250°
2026-04-25 13:17 36.68573 -4.80936 32097 ft 474 kts 250°
2026-04-25 13:17 36.66297 -4.88635 32100 ft 473 kts 250°
2026-04-25 13:18 36.64020 -4.96323 32096 ft 473 kts 250°
2026-04-25 13:18 36.61752 -5.03941 32095 ft 472 kts 251°
2026-04-25 13:19 36.59470 -5.11601 32093 ft 472 kts 251°
2026-04-25 13:19 36.57944 -5.16722 32093 ft 471 kts 251°
2026-04-25 13:20 36.54911 -5.26892 32094 ft 471 kts 251°
2026-04-25 13:20 36.52621 -5.34512 32092 ft 470 kts 251°
2026-04-25 13:21 36.50213 -5.42061 32085 ft 471 kts 245°
2026-04-25 13:21 36.46945 -5.49118 32085 ft 471 kts 242°
2026-04-25 13:22 36.43630 -5.56136 32086 ft 471 kts 242°
2026-04-25 13:23 36.38668 -5.66638 32074 ft 469 kts 242°
2026-04-25 13:23 36.35353 -5.73613 32070 ft 469 kts 242°
2026-04-25 13:24 36.32054 -5.80528 32067 ft 468 kts 242°
2026-04-25 13:24 36.28742 -5.87472 32067 ft 467 kts 242°
2026-04-25 13:25 36.25433 -5.94410 32065 ft 467 kts 243°
2026-04-25 13:25 36.21789 -6.01080 32058 ft 469 kts 236°
2026-04-25 13:26 36.17829 -6.07514 32058 ft 469 kts 236°
2026-04-25 13:26 36.13867 -6.13933 32049 ft 469 kts 236°
2026-04-25 13:27 36.09918 -6.20348 32054 ft 469 kts 236°
2026-04-25 13:27 36.05963 -6.26756 32052 ft 468 kts 236°
2026-04-25 13:28 36.02004 -6.33159 32052 ft 468 kts 237°
2026-04-25 13:28 35.98081 -6.39507 32050 ft 468 kts 237°
2026-04-25 13:29 35.94121 -6.45890 32039 ft 468 kts 237°
2026-04-25 13:29 35.90156 -6.52268 32042 ft 468 kts 237°
2026-04-25 13:30 35.84209 -6.61806 32043 ft 467 kts 237°
2026-04-25 13:31 35.78244 -6.71362 32012 ft 471 kts 237°
2026-04-25 13:31 35.74237 -6.77759 32011 ft 473 kts 237°
2026-04-25 13:32 35.70214 -6.84173 32022 ft 474 kts 237°
2026-04-25 13:32 35.66177 -6.90595 32026 ft 474 kts 237°
2026-04-25 13:33 35.62160 -6.96971 32052 ft 474 kts 237°
2026-04-25 13:33 35.58116 -7.03392 32047 ft 474 kts 237°
2026-04-25 13:34 35.54070 -7.09793 32041 ft 474 kts 237°
2026-04-25 13:34 35.50022 -7.16173 32042 ft 473 kts 237°
2026-04-25 13:35 35.45983 -7.22557 32051 ft 473 kts 237°
2026-04-25 13:35 35.41971 -7.28888 32051 ft 473 kts 236°
2026-04-25 13:36 35.37924 -7.35248 32055 ft 473 kts 236°
2026-04-25 13:36 35.33865 -7.41602 32053 ft 472 kts 236°
2026-04-25 13:37 35.29815 -7.47928 32191 ft 472 kts 236°
2026-04-25 13:37 35.27821 -7.51045 32379 ft 471 kts 236°
2026-04-25 13:37 35.25803 -7.54194 32544 ft 470 kts 236°
2026-04-25 13:37 35.23787 -7.57339 32718 ft 469 kts 236°
2026-04-25 13:38 35.21775 -7.60475 32888 ft 467 kts 236°
2026-04-25 13:38 35.19770 -7.63593 33076 ft 466 kts 236°
2026-04-25 13:38 35.17766 -7.66710 33240 ft 465 kts 236°
2026-04-25 13:38 35.16416 -7.68807 33360 ft 465 kts 236°
2026-04-25 13:39 35.14421 -7.71904 33533 ft 464 kts 236°
2026-04-25 13:39 35.12426 -7.75002 33701 ft 463 kts 236°
2026-04-25 13:39 35.10468 -7.78043 33872 ft 462 kts 236°
2026-04-25 13:39 35.08484 -7.81120 34031 ft 461 kts 236°
2026-04-25 13:40 35.06501 -7.84195 34060 ft 460 kts 236°
2026-04-25 13:40 35.02536 -7.90317 34049 ft 459 kts 236°
2026-04-25 13:41 34.98569 -7.96420 34052 ft 459 kts 236°
2026-04-25 13:41 34.94611 -8.02527 34053 ft 458 kts 236°
2026-04-25 13:42 34.90653 -8.08620 34053 ft 458 kts 235°
2026-04-25 13:42 34.86695 -8.14695 34053 ft 458 kts 235°
2026-04-25 13:43 34.82756 -8.20723 34054 ft 458 kts 235°
2026-04-25 13:43 34.78800 -8.26787 34055 ft 457 kts 235°
2026-04-25 13:44 34.74839 -8.32847 34059 ft 457 kts 235°
2026-04-25 13:44 34.70871 -8.38895 34061 ft 457 kts 234°
2026-04-25 13:45 34.66899 -8.44933 34052 ft 457 kts 234°
2026-04-25 13:45 34.62926 -8.50968 34054 ft 457 kts 234°
2026-04-25 13:46 34.58953 -8.57000 34053 ft 457 kts 234°
2026-04-25 13:46 34.54979 -8.63023 34056 ft 457 kts 234°
2026-04-25 13:47 34.50999 -8.69043 34056 ft 457 kts 234°
2026-04-25 13:47 34.47013 -8.75052 34055 ft 457 kts 234°
2026-04-25 13:48 34.42678 -8.80638 34055 ft 462 kts 221°
2026-04-25 13:48 34.37642 -8.85475 34048 ft 462 kts 221°
2026-04-25 13:49 34.32599 -8.90311 34048 ft 462 kts 221°
2026-04-25 13:49 34.27559 -8.95144 34048 ft 462 kts 221°
2026-04-25 13:50 34.22524 -8.99981 34045 ft 462 kts 221°
2026-04-25 13:50 34.17481 -9.04807 34047 ft 463 kts 221°
2026-04-25 13:51 34.12427 -9.09616 34046 ft 463 kts 220°
2026-04-25 13:51 34.07375 -9.14429 34049 ft 463 kts 220°
2026-04-25 13:52 34.02327 -9.19247 34049 ft 463 kts 220°
2026-04-25 13:52 33.97278 -9.24043 34045 ft 463 kts 220°
2026-04-25 13:53 33.92253 -9.28807 34046 ft 462 kts 220°
2026-04-25 13:53 33.87197 -9.33605 34047 ft 462 kts 220°
2026-04-25 13:54 33.82139 -9.38389 34048 ft 462 kts 220°
2026-04-25 13:54 33.77078 -9.43168 34050 ft 462 kts 220°
2026-04-25 13:55 33.72023 -9.47933 34052 ft 462 kts 220°
2026-04-25 13:55 33.66967 -9.52690 34049 ft 461 kts 220°
2026-04-25 13:56 33.61916 -9.57437 34052 ft 461 kts 220°
2026-04-25 13:56 33.56897 -9.62144 34046 ft 461 kts 220°
2026-04-25 13:57 33.51843 -9.66885 34048 ft 461 kts 220°
2026-04-25 13:57 33.46796 -9.71614 34048 ft 460 kts 219°
2026-04-25 13:58 33.41745 -9.76329 34051 ft 460 kts 219°
2026-04-25 13:58 33.36706 -9.81034 34054 ft 460 kts 219°
2026-04-25 13:59 33.31660 -9.85733 34053 ft 459 kts 219°
2026-04-25 13:59 33.26620 -9.90416 34053 ft 459 kts 219°
2026-04-25 14:00 33.21585 -9.95091 34055 ft 458 kts 219°
2026-04-25 14:00 33.16553 -9.99759 34046 ft 458 kts 219°
2026-04-25 14:01 33.11556 -10.04385 34060 ft 457 kts 219°
2026-04-25 14:01 33.06531 -10.09037 34055 ft 457 kts 219°
2026-04-25 14:02 33.01500 -10.13670 34045 ft 456 kts 219°
2026-04-25 14:02 32.96474 -10.18293 34048 ft 456 kts 219°
2026-04-25 14:03 32.91455 -10.22904 34058 ft 456 kts 219°
2026-04-25 14:03 32.86437 -10.27510 34041 ft 455 kts 219°
2026-04-25 14:04 32.81421 -10.32122 34045 ft 455 kts 218°
2026-04-25 14:04 32.76404 -10.36717 34040 ft 455 kts 218°
2026-04-25 14:05 32.71382 -10.41298 34032 ft 455 kts 218°
2026-04-25 14:05 32.66358 -10.45877 34038 ft 455 kts 218°
2026-04-25 14:06 32.61372 -10.50425 34048 ft 455 kts 218°
2026-04-25 14:06 32.56351 -10.55002 34044 ft 455 kts 218°
2026-04-25 14:07 32.51321 -10.59553 34035 ft 454 kts 218°
2026-04-25 14:07 32.46299 -10.64092 34038 ft 454 kts 218°
2026-04-25 14:08 32.41288 -10.68632 34046 ft 453 kts 218°
2026-04-25 14:08 32.36279 -10.73163 34049 ft 453 kts 217°
2026-04-25 14:09 32.31278 -10.77684 34050 ft 452 kts 217°
2026-04-25 14:09 32.26280 -10.82198 34035 ft 452 kts 217°
2026-04-25 14:10 32.21317 -10.86669 34025 ft 452 kts 217°
2026-04-25 14:10 32.16303 -10.91173 34025 ft 452 kts 217°
2026-04-25 14:11 32.11294 -10.95673 34019 ft 453 kts 217°
2026-04-25 14:11 32.06274 -11.00173 34019 ft 454 kts 217°
2026-04-25 14:12 32.01242 -11.04684 34009 ft 455 kts 217°
2026-04-25 14:12 31.96200 -11.09195 34015 ft 455 kts 217°
2026-04-25 14:13 31.91148 -11.13711 34010 ft 456 kts 216°
2026-04-25 14:13 31.86113 -11.18211 34012 ft 457 kts 216°
2026-04-25 14:14 31.81038 -11.22731 34016 ft 458 kts 216°
2026-04-25 14:14 31.75963 -11.27253 34017 ft 458 kts 216°
2026-04-25 14:15 31.70879 -11.31781 34020 ft 458 kts 216°
2026-04-25 14:15 31.65800 -11.36309 34034 ft 458 kts 216°
2026-04-25 14:16 31.60719 -11.40828 34030 ft 458 kts 216°
2026-04-25 14:16 31.55673 -11.45311 34050 ft 457 kts 216°
2026-04-25 14:17 31.50619 -11.49813 34039 ft 456 kts 216°
2026-04-25 14:17 31.45552 -11.54298 34046 ft 456 kts 216°
2026-04-25 14:18 31.40499 -11.58768 34046 ft 455 kts 216°
2026-04-25 14:18 31.35451 -11.63230 34038 ft 454 kts 216°
2026-04-25 14:19 31.30405 -11.67687 34032 ft 454 kts 216°
2026-04-25 14:19 31.25351 -11.72133 34026 ft 454 kts 216°
2026-04-25 14:20 31.20331 -11.76555 34019 ft 455 kts 216°
2026-04-25 14:20 31.15274 -11.81010 34017 ft 455 kts 216°
2026-04-25 14:21 31.10205 -11.85459 34015 ft 456 kts 216°
2026-04-25 14:21 31.05129 -11.89911 34018 ft 457 kts 216°
2026-04-25 14:22 31.00024 -11.94369 34020 ft 458 kts 216°
2026-04-25 14:22 30.94921 -11.98830 34014 ft 459 kts 216°
2026-04-25 14:23 30.89808 -12.03304 34010 ft 460 kts 216°
2026-04-25 14:23 30.84681 -12.07784 34015 ft 462 kts 216°
2026-04-25 14:24 30.79528 -12.12265 34012 ft 463 kts 215°
2026-04-25 14:24 30.74356 -12.16754 34013 ft 464 kts 216°
2026-04-25 14:25 30.69174 -12.21252 34013 ft 465 kts 216°
2026-04-25 14:25 30.63982 -12.25757 34021 ft 466 kts 216°
2026-04-25 14:26 30.58816 -12.30236 34029 ft 466 kts 216°
2026-04-25 14:26 30.53610 -12.34724 34038 ft 466 kts 216°
2026-04-25 14:27 30.48406 -12.39206 34046 ft 466 kts 216°
2026-04-25 14:27 30.43212 -12.43686 34049 ft 465 kts 217°
2026-04-25 14:28 30.38023 -12.48143 34055 ft 464 kts 217°
2026-04-25 14:28 30.32828 -12.52597 34056 ft 464 kts 217°
2026-04-25 14:29 30.28512 -12.56283 34054 ft 463 kts 217°
2026-04-25 14:29 30.23321 -12.60716 34051 ft 463 kts 217°
2026-04-25 14:30 30.19011 -12.64398 34049 ft 463 kts 217°
2026-04-25 14:30 30.10339 -12.71770 34055 ft 463 kts 217°
2026-04-25 14:31 30.05279 -12.76356 34052 ft 462 kts 220°
2026-04-25 14:31 30.00353 -12.81115 34058 ft 461 kts 221°
2026-04-25 14:32 29.95454 -12.85826 34061 ft 461 kts 220°
2026-04-25 14:32 29.90488 -12.90493 34065 ft 460 kts 220°
2026-04-25 14:33 29.85513 -12.95124 34061 ft 460 kts 220°
2026-04-25 14:33 29.80544 -12.99759 34059 ft 459 kts 220°
2026-04-25 14:34 29.75585 -13.04396 34058 ft 459 kts 220°
2026-04-25 14:34 29.70629 -13.09029 34058 ft 459 kts 220°
2026-04-25 14:35 29.65674 -13.13653 34059 ft 459 kts 220°
2026-04-25 14:35 29.60714 -13.18272 34057 ft 459 kts 220°
2026-04-25 14:36 29.55756 -13.22890 34053 ft 459 kts 220°
2026-04-25 14:36 29.50791 -13.27499 34056 ft 459 kts 220°
2026-04-25 14:37 29.45818 -13.32110 34057 ft 459 kts 220°
2026-04-25 14:37 29.40852 -13.36726 34056 ft 459 kts 220°
2026-04-25 14:38 29.35880 -13.41330 34057 ft 459 kts 220°
2026-04-25 14:38 29.30904 -13.45920 34061 ft 459 kts 221°
2026-04-25 14:39 29.25930 -13.50508 34076 ft 459 kts 221°
2026-04-25 14:39 29.20989 -13.55064 34061 ft 458 kts 221°
2026-04-25 14:40 29.16015 -13.59633 34052 ft 458 kts 221°
2026-04-25 14:40 29.11047 -13.64193 34053 ft 458 kts 221°
2026-04-25 14:41 29.06082 -13.68761 34041 ft 457 kts 221°
2026-04-25 14:41 29.01121 -13.73311 34039 ft 457 kts 221°
2026-04-25 14:42 28.96992 -13.77084 34035 ft 457 kts 221°
2026-04-25 14:42 28.91193 -13.82390 34047 ft 457 kts 221°
2026-04-25 14:43 28.86236 -13.86923 34052 ft 457 kts 222°
2026-04-25 14:43 28.81272 -13.91439 34058 ft 456 kts 222°
2026-04-25 14:44 28.76306 -13.95956 34051 ft 456 kts 222°
2026-04-25 14:44 28.71351 -14.00471 34049 ft 456 kts 222°
2026-04-25 14:45 28.66386 -14.04981 34049 ft 456 kts 222°
2026-04-25 14:45 28.61462 -14.09456 34051 ft 456 kts 223°
2026-04-25 14:46 28.56509 -14.13956 34051 ft 456 kts 223°
2026-04-25 14:46 28.51552 -14.18442 34053 ft 455 kts 223°
2026-04-25 14:47 28.47392 -14.22199 34061 ft 455 kts 223°
2026-04-25 14:47 28.41646 -14.27397 34070 ft 454 kts 223°
2026-04-25 14:48 28.36695 -14.31859 34071 ft 454 kts 223°
2026-04-25 14:48 28.31740 -14.36315 34069 ft 453 kts 223°
2026-04-25 14:49 28.26802 -14.40758 34071 ft 453 kts 223°
2026-04-25 14:49 28.21866 -14.45199 34074 ft 452 kts 223°
2026-04-25 14:50 28.16932 -14.49629 34074 ft 452 kts 223°
2026-04-25 14:50 28.12006 -14.54048 34074 ft 451 kts 223°
2026-04-25 14:51 28.07089 -14.58463 34072 ft 451 kts 223°
2026-04-25 14:51 28.02413 -14.63117 34068 ft 443 kts 234°
2026-04-25 14:52 27.99271 -14.68969 34069 ft 432 kts 252°
2026-04-25 14:52 27.97926 -14.74366 34068 ft 428 kts 259°
2026-04-25 14:53 27.96285 -14.81977 34071 ft 428 kts 258°
2026-04-25 14:53 27.94859 -14.88524 34070 ft 428 kts 258°
2026-04-25 14:54 27.93433 -14.95062 34067 ft 428 kts 259°
2026-04-25 14:54 27.92008 -15.01592 34072 ft 427 kts 259°
2026-04-25 14:55 27.90585 -15.08116 34066 ft 427 kts 259°
2026-04-25 14:55 27.89154 -15.14637 34064 ft 427 kts 258°
2026-04-25 14:56 27.87723 -15.21140 34066 ft 427 kts 259°
2026-04-25 14:56 27.86292 -15.27643 34062 ft 426 kts 259°
2026-04-25 14:57 27.84859 -15.34141 34070 ft 426 kts 259°
2026-04-25 14:57 27.83449 -15.40628 34055 ft 421 kts 261°
2026-04-25 14:58 27.83098 -15.43836 33914 ft 403 kts 269°
2026-04-25 14:58 27.83160 -15.46896 33771 ft 387 kts 276°
2026-04-25 14:58 27.83449 -15.49902 33633 ft 373 kts 277°
2026-04-25 14:58 27.83713 -15.52767 33497 ft 359 kts 276°
2026-04-25 14:59 27.83951 -15.55491 33354 ft 347 kts 276°
2026-04-25 14:59 27.84177 -15.58170 33052 ft 339 kts 276°
2026-04-25 14:59 27.84399 -15.60833 32594 ft 334 kts 276°
2026-04-25 14:59 27.84619 -15.63436 32104 ft 332 kts 276°
2026-04-25 15:00 27.84840 -15.66018 31631 ft 329 kts 276°
2026-04-25 15:00 27.85059 -15.68550 31162 ft 327 kts 276°
2026-04-25 15:00 27.85281 -15.71097 30707 ft 325 kts 277°
2026-04-25 15:00 27.85501 -15.73633 30275 ft 323 kts 277°
2026-04-25 15:01 27.85715 -15.76156 29800 ft 322 kts 276°
2026-04-25 15:01 27.85926 -15.78663 29338 ft 319 kts 277°
2026-04-25 15:01 27.86135 -15.81149 28857 ft 317 kts 277°
2026-04-25 15:01 27.86345 -15.83613 28407 ft 314 kts 277°
2026-04-25 15:02 27.86553 -15.86058 27953 ft 311 kts 277°
2026-04-25 15:02 27.86758 -15.88487 27512 ft 309 kts 277°
2026-04-25 15:02 27.86962 -15.90891 27084 ft 307 kts 277°
2026-04-25 15:02 27.87168 -15.93285 26643 ft 305 kts 277°
2026-04-25 15:03 27.87370 -15.95658 26223 ft 303 kts 277°
2026-04-25 15:03 27.87569 -15.98027 25792 ft 301 kts 276°
2026-04-25 15:03 27.87764 -16.00372 25389 ft 299 kts 276°
2026-04-25 15:03 27.87957 -16.02704 24972 ft 297 kts 276°
2026-04-25 15:04 27.88151 -16.05024 24577 ft 296 kts 276°
2026-04-25 15:04 27.88342 -16.07334 24178 ft 294 kts 276°
2026-04-25 15:04 27.88532 -16.09633 23779 ft 293 kts 276°
2026-04-25 15:04 27.88723 -16.11917 23360 ft 291 kts 276°
2026-04-25 15:05 27.88914 -16.14185 22912 ft 289 kts 276°
2026-04-25 15:05 27.89101 -16.16438 22483 ft 287 kts 276°
2026-04-25 15:05 27.89285 -16.18680 22057 ft 285 kts 276°
2026-04-25 15:06 27.89646 -16.23110 21242 ft 281 kts 276°
2026-04-25 15:06 27.89770 -16.25308 20835 ft 280 kts 269°
2026-04-25 15:06 27.89537 -16.27460 20460 ft 279 kts 258°
2026-04-25 15:06 27.88904 -16.29566 20056 ft 280 kts 250°
2026-04-25 15:07 27.88152 -16.31561 19669 ft 279 kts 250°
2026-04-25 15:07 27.87397 -16.33574 19282 ft 278 kts 250°
2026-04-25 15:07 27.86644 -16.35581 18903 ft 277 kts 250°
2026-04-25 15:07 27.85896 -16.37578 18533 ft 275 kts 250°
2026-04-25 15:08 27.85150 -16.39565 18135 ft 274 kts 250°
2026-04-25 15:08 27.84408 -16.41543 17731 ft 273 kts 250°
2026-04-25 15:08 27.83668 -16.43515 17315 ft 272 kts 250°
2026-04-25 15:08 27.82931 -16.45484 16918 ft 271 kts 250°
2026-04-25 15:09 27.82197 -16.47445 16519 ft 271 kts 250°
2026-04-25 15:09 27.81466 -16.49401 16144 ft 270 kts 249°
2026-04-25 15:09 27.79999 -16.53301 15377 ft 269 kts 249°
2026-04-25 15:10 27.79268 -16.55242 15007 ft 268 kts 249°
2026-04-25 15:10 27.78536 -16.57181 14643 ft 268 kts 249°
2026-04-25 15:10 27.77077 -16.61045 13933 ft 267 kts 249°
2026-04-25 15:11 27.76598 -16.62319 13692 ft 266 kts 249°
2026-04-25 15:11 27.75874 -16.64242 13314 ft 265 kts 249°
2026-04-25 15:11 27.75154 -16.66157 12943 ft 264 kts 249°
2026-04-25 15:12 27.74718 -16.70111 12203 ft 255 kts 288°
2026-04-25 15:12 27.75501 -16.71877 11827 ft 252 kts 310°
2026-04-25 15:12 27.76743 -16.73266 11450 ft 251 kts 317°
2026-04-25 15:12 27.77595 -16.74155 11208 ft 251 kts 317°
2026-04-25 15:13 27.79303 -16.75942 10738 ft 249 kts 317°
2026-04-25 15:13 27.81832 -16.78597 10061 ft 247 kts 317°
2026-04-25 15:13 27.83085 -16.79915 9716 ft 245 kts 317°
2026-04-25 15:14 27.84306 -16.81252 9351 ft 244 kts 309°
2026-04-25 15:14 27.85070 -16.82944 8986 ft 244 kts 284°
2026-04-25 15:14 27.85105 -16.84850 8615 ft 246 kts 258°
2026-04-25 15:14 27.84506 -16.86656 8246 ft 246 kts 249°
2026-04-25 15:15 27.83926 -16.88465 7898 ft 242 kts 262°
2026-04-25 15:15 27.83983 -16.90316 7566 ft 232 kts 287°
2026-04-25 15:15 27.84674 -16.91887 7158 ft 224 kts 309°
2026-04-25 15:15 27.85865 -16.92994 6621 ft 222 kts 333°
2026-04-25 15:16 27.87342 -16.93445 6070 ft 221 kts 356°
2026-04-25 15:16 27.88850 -16.93175 5521 ft 221 kts 20°
2026-04-25 15:16 27.91051 -16.90854 4512 ft 221 kts 55°
2026-04-25 15:17 27.92766 -16.87962 3747 ft 220 kts 54°
2026-04-25 15:17 27.93605 -16.86519 3377 ft 220 kts 59°
2026-04-25 15:17 27.94262 -16.84959 3044 ft 219 kts 63°
2026-04-25 15:18 27.94902 -16.83392 3016 ft 220 kts 63°
2026-04-25 15:18 27.96184 -16.80254 3017 ft 220 kts 64°
2026-04-25 15:18 27.96817 -16.78704 2844 ft 211 kts 63°
2026-04-25 15:19 27.97419 -16.77229 2670 ft 203 kts 63°
2026-04-25 15:19 27.97805 -16.76285 2583 ft 196 kts 63°
2026-04-25 15:19 27.98484 -16.74423 2469 ft 188 kts 68°
2026-04-25 15:19 27.98947 -16.73043 2338 ft 187 kts 67°
2026-04-25 15:20 27.99417 -16.71677 2225 ft 186 kts 67°
2026-04-25 15:20 27.99884 -16.70334 2149 ft 185 kts 66°
2026-04-25 15:20 28.00363 -16.68961 2045 ft 184 kts 66°
2026-04-25 15:20 28.00828 -16.67631 1837 ft 180 kts 67°
2026-04-25 15:21 28.01276 -16.66346 1612 ft 176 kts 66°
2026-04-25 15:21 28.01726 -16.65057 1376 ft 171 kts 67°
2026-04-25 15:21 28.02142 -16.63865 1172 ft 157 kts 67°
2026-04-25 15:21 28.02529 -16.62758 946 ft 150 kts 67°
2026-04-25 15:22 28.02901 -16.61673 735 ft 145 kts 70°
2026-04-25 15:22 28.03275 -16.60623 583 ft 143 kts 71°
2026-04-25 15:22 28.03637 -16.59576 404 ft 142 kts 71°
2026-04-25 15:22 28.03989 -16.58558 224 ft 135 kts 72°
2026-04-25 15:23 28.04306 -16.57633 216 ft 114 kts 69°
2026-04-25 15:23 28.04538 -16.56993 215 ft 58 kts 66°
2026-04-25 15:23 28.04626 -16.56873 213 ft 6 kts 356°
2026-04-25 15:23 28.04694 -16.56833 218 ft 18 kts 45°
2026-04-25 15:24 28.04765 -16.56821 212 ft 12 kts 310°
2026-04-25 15:24 28.04742 -16.56960 210 ft 24 kts 248°
2026-04-25 15:24 28.04682 -16.57130 209 ft 22 kts 248°
2026-04-25 15:24 28.04640 -16.57233 210 ft 21 kts 247°
2026-04-25 15:25 28.04590 -16.57447 209 ft 14 kts 308°
2026-04-25 15:25 28.04680 -16.57512 211 ft 14 kts 296°
2026-04-25 15:25 28.04735 -16.57573 208 ft 5 kts 341°
2026-04-25 15:25 28.04747 -16.57578 215 ft 0 kts 341°